{"data":{"norad_id":59905,"epoch":"2026-05-25T02:33:53.998272Z","epoch_age_seconds":59799,"freshness":"FRESH","line1":"1 59905U 24100W   26145.10687498  .00000367  00000+0  22846-4 0  9997","line2":"2 59905  43.0025  50.3973 0000829 267.8751  92.2005 15.27590344112873","mean_motion":15.27590344,"eccentricity":8.29e-5,"inclination_deg":43.0025,"raan_deg":50.3973,"arg_perigee_deg":267.8751,"mean_anomaly_deg":92.2005,"bstar":2.2846e-5,"rev_number":11287,"period_min":94.266110391177,"perigee_km":482.44933279754,"apogee_km":483.58691231686,"semimajor_km":6861.1551225572,"source":"CELESTRAK","updated_at":"2026-05-25T13:38:19.120559Z"}}